Location: Allen Fire Department Station 4
(33.1073°N, 96.6988°W)
Time: 02:37:50
(UTC+00:00)

Cosmos 1777 Rocket - Visible Passes

Search period start: 26 June 2022 00:00
Search period end: 06 July 2022 00:00
Orbit: 757 x 776 km, 74.0° (Epoch: 25 June)

Date Brightness Start Highest point End Pass type
(mag) Time Alt. Az. Time Alt. Az. Time Alt. Az.
26 Jun 6.5 06:54:58 10° NNE 06:57:25 13° ENE 06:59:15 11° E visible
26 Jun 4.1 08:34:39 10° NNW 08:39:26 61° WNW 08:39:26 61° WNW visible
27 Jun 4.3 07:57:10 10° NNW 08:01:59 66° NE 08:01:59 66° NE visible
28 Jun 5.2 07:20:00 10° N 07:24:35 38° ENE 07:24:35 38° ENE visible
28 Jun 5.8 09:02:50 10° NW 09:04:46 17° WNW 09:04:46 17° WNW visible
29 Jun 5.9 06:43:13 10° NNE 06:47:15 22° ENE 06:47:16 22° ENE visible
29 Jun 5.3 08:24:32 10° NW 08:27:27 28° WNW 08:27:27 28° WNW visible
30 Jun 6.5 06:07:22 10° NE 06:09:29 12° ENE 06:10:00 12° ENE visible
30 Jun 5.0 07:46:45 10° NNW 07:50:12 41° NW 07:50:12 41° NW visible
01 Jul 5.0 07:09:19 10° N 07:12:59 44° N 07:12:59 44° N visible
02 Jul 5.5 06:32:10 10° N 06:35:49 32° NE 06:35:49 32° NE visible
02 Jul 6.2 08:14:49 10° NW 08:16:01 15° WNW 08:16:01 15° WNW visible
03 Jul 6.0 05:55:27 10° NNE 05:58:42 20° NE 05:58:42 20° NE visible
03 Jul 5.7 07:36:36 10° NNW 07:38:54 24° NW 07:38:54 24° NW visible
04 Jul 6.5 05:19:52 10° NE 05:21:33 11° ENE 05:21:36 11° ENE visible
04 Jul 5.4 06:58:51 10° NNW 07:01:48 34° NNW 07:01:48 34° NNW visible
05 Jul 5.3 06:21:26 10° N 06:24:46 37° N 06:24:46 37° N visible
